• In Uzbekistan
  • List of Countries
  • For 7 days
  • Water Temperature
  • Satellite Maps
  • Weather Map
  • Weather Widgets
  • user-avatar
    Login

    Hourly Weather Varel

    Today, 18 October, Thursday

    Time Temperature Precipitation Wind Pressure Humidity
    00:00 +13°C° 0 mm 2 mps 765 mmHg 96%
    01:00 +13°C° 0 mm 2 mps 765 mmHg 96%
    02:00 +13°C° 0 mm 2 mps 765 mmHg 96%
    03:00 +12°C° 0 mm 2 mps 765 mmHg 96%
    04:00 +11°C° 0 mm 3 mps 765 mmHg 96%
    05:00 +11°C° 0 mm 3 mps 765 mmHg 96%
    06:00 +11°C° 0 mm 3 mps 765 mmHg 96%
    07:00 +11°C° 0 mm 3 mps 766 mmHg 96%
    08:00 +12°C° 0 mm 4 mps 766 mmHg 92%
    09:00 +13°C° 0 mm 4 mps 766 mmHg 88%
    10:00 +14°C° 0 mm 5 mps 767 mmHg 83%
    11:00 +14°C° 0 mm 5 mps 767 mmHg 80%
    12:00 +15°C° 0 mm 5 mps 767 mmHg 76%
    13:00 +15°C° 0 mm 5 mps 767 mmHg 73%
    14:00 +15°C° 0 mm 5 mps 767 mmHg 72%
    15:00 +14°C° 0 mm 5 mps 767 mmHg 71%
    16:00 +14°C° 0 mm 5 mps 767 mmHg 70%
    17:00 +13°C° 0 mm 4 mps 768 mmHg 73%
    18:00 +11°C° 0 mm 4 mps 768 mmHg 77%
    19:00 +10°C° 0 mm 4 mps 768 mmHg 81%
    20:00 +8°C° 0 mm 4 mps 768 mmHg 82%
    21:00 +9°C° 0 mm 3 mps 769 mmHg 84%
    22:00 +8°C° 0 mm 3 mps 769 mmHg 85%
    23:00 +8°C° 0 mm 3 mps 769 mmHg 86%

    Tomorrow, 19 October, Friday

    Time Temperature Precipitation Wind Pressure Humidity
    00:00 +7°C° 0 mm 3 mps 769 mmHg 88%
    01:00 +7°C° 0 mm 2 mps 769 mmHg 89%
    02:00 +6°C° 0 mm 2 mps 769 mmHg 89%
    03:00 +6°C° 0 mm 2 mps 769 mmHg 90%
    04:00 +6°C° 0 mm 2 mps 769 mmHg 91%
    05:00 +6°C° 0 mm 2 mps 769 mmHg 91%
    06:00 +6°C° 0 mm 1 mps 769 mmHg 91%
    07:00 +6°C° 0 mm 1 mps 769 mmHg 91%
    08:00 +8°C° 0 mm 1 mps 769 mmHg 85%
    09:00 +9°C° 0 mm 1 mps 770 mmHg 79%
    10:00 +11°C° 0 mm 1 mps 770 mmHg 72%
    11:00 +12°C° 0 mm 1 mps 770 mmHg 67%
    12:00 +13°C° 0 mm 1 mps 770 mmHg 62%
    13:00 +14°C° 0 mm 1 mps 770 mmHg 57%
    14:00 +14°C° 0 mm 1 mps 769 mmHg 58%
    15:00 +14°C° 0 mm 1 mps 769 mmHg 60%
    16:00 +13°C° 0 mm 1 mps 769 mmHg 61%
    17:00 +12°C° 0 mm 1 mps 770 mmHg 68%
    18:00 +9°C° 0 mm 2 mps 770 mmHg 75%
    19:00 +7°C° 0 mm 2 mps 770 mmHg 82%
    20:00 +8°C° 0 mm 1 mps 770 mmHg 83%
    21:00 +7°C° 0 mm 1 mps 771 mmHg 84%
    22:00 +7°C° 0 mm 1 mps 771 mmHg 85%
    23:00 +7°C° 0 mm 1 mps 771 mmHg 86%

    Day after tomorrow, 20 October, Saturday

    Time Temperature Precipitation Wind Pressure Humidity
    00:00 +6°C° 0 mm 1 mps 771 mmHg 86%
    01:00 +6°C° 0 mm 1 mps 771 mmHg 86%
    02:00 +6°C° 0 mm 1 mps 771 mmHg 87%
    03:00 +6°C° 0 mm 1 mps 772 mmHg 87%
    04:00 +6°C° 0 mm 1 mps 772 mmHg 87%
    05:00 +6°C° 0 mm 1 mps 772 mmHg 87%
    06:00 +5°C° 0 mm 1 mps 772 mmHg 87%
    07:00 +5°C° 0 mm 1 mps 772 mmHg 87%
    08:00 +7°C° 0 mm 1 mps 773 mmHg 82%
    09:00 +8°C° 0 mm 2 mps 773 mmHg 76%
    10:00 +10°C° 0 mm 2 mps 773 mmHg 70%
    11:00 +12°C° 0 mm 2 mps 774 mmHg 67%
    12:00 +13°C° 0 mm 2 mps 774 mmHg 64%
    13:00 +14°C° 0 mm 2 mps 774 mmHg 61%
    14:00 +14°C° 0 mm 2 mps 773 mmHg 64%
    15:00 +14°C° 0 mm 2 mps 773 mmHg 66%
    16:00 +14°C° 0 mm 2 mps 773 mmHg 69%
    17:00 +12°C° 0 mm 2 mps 773 mmHg 74%
    18:00 +10°C° 0 mm 2 mps 773 mmHg 79%
    19:00 +8°C° 0 mm 2 mps 773 mmHg 84%
    20:00 +8°C° 0 mm 2 mps 773 mmHg 84%
    21:00 +8°C° 0 mm 2 mps 773 mmHg 84%
    22:00 +7°C° 0 mm 2 mps 774 mmHg 84%
    23:00 +7°C° 0 mm 2 mps 774 mmHg 83%

    21 October, Sunday

    Time Temperature Precipitation Wind Pressure Humidity
    00:00 +7°C° 0 mm 2 mps 773 mmHg 82%
    01:00 +7°C° 0 mm 2 mps 773 mmHg 81%
    02:00 +5°C° 0 mm 3 mps 773 mmHg 80%
    03:00 +5°C° 0 mm 3 mps 773 mmHg 78%
    04:00 +5°C° 0 mm 3 mps 773 mmHg 77%
    05:00 +5°C° 0 mm 3 mps 773 mmHg 76%
    06:00 +5°C° 0 mm 3 mps 772 mmHg 74%
    07:00 +5°C° 0 mm 3 mps 772 mmHg 73%
    08:00 +7°C° 0 mm 3 mps 772 mmHg 68%
    09:00 +9°C° 0 mm 3 mps 772 mmHg 63%
    10:00 +10°C° 0 mm 3 mps 772 mmHg 57%
    11:00 +12°C° 0 mm 3 mps 771 mmHg 54%
    12:00 +13°C° 0 mm 3 mps 771 mmHg 51%
    13:00 +16°C° 0 mm 3 mps 771 mmHg 49%
    14:00 +16°C° 0 mm 3 mps 770 mmHg 51%
    15:00 +16°C° 0 mm 3 mps 770 mmHg 54%
    16:00 +14°C° 0 mm 3 mps 770 mmHg 57%
    17:00 +13°C° 0 mm 3 mps 770 mmHg 59%
    18:00 +12°C° 0 mm 3 mps 769 mmHg 60%
    19:00 +11°C° 0 mm 3 mps 769 mmHg 62%
    20:00 +11°C° 0 mm 4 mps 769 mmHg 61%
    21:00 +11°C° 0 mm 4 mps 769 mmHg 61%
    22:00 +11°C° 0 mm 4 mps 769 mmHg 60%
    23:00 +11°C° 0.2 mm 4 mps 769 mmHg 65%

    22 October, Monday

    Time Temperature Precipitation Wind Pressure Humidity
    00:00 +11°C° 0.2 mm 4 mps 769 mmHg 71%
    01:00 +11°C° 0.2 mm 4 mps 769 mmHg 76%
    02:00 +10°C° 0.3 mm 5 mps 769 mmHg 81%
    03:00 +10°C° 0.3 mm 5 mps 769 mmHg 85%
    04:00 +11°C° 0.3 mm 6 mps 770 mmHg 90%
    05:00 +10°C° 0 mm 5 mps 770 mmHg 90%
    06:00 +9°C° 0 mm 5 mps 771 mmHg 89%
    07:00 +8°C° 0 mm 5 mps 771 mmHg 89%
    08:00 +9°C° 0 mm 5 mps 772 mmHg 83%
    09:00 +10°C° 0 mm 6 mps 772 mmHg 77%
    10:00 +11°C° 0 mm 6 mps 773 mmHg 71%
    11:00 +11°C° 0 mm 6 mps 773 mmHg 67%
    12:00 +11°C° 0 mm 6 mps 773 mmHg 63%
    13:00 +12°C° 0 mm 7 mps 773 mmHg 59%
    14:00 +11°C° 0 mm 6 mps 773 mmHg 60%
    15:00 +12°C° 0 mm 5 mps 773 mmHg 61%
    16:00 +10°C° 0 mm 5 mps 773 mmHg 63%
    17:00 +10°C° 0 mm 4 mps 773 mmHg 70%
    18:00 +8°C° 0 mm 4 mps 773 mmHg 76%
    19:00 +7°C° 0 mm 4 mps 773 mmHg 83%
    20:00 +7°C° 0 mm 4 mps 773 mmHg 83%
    21:00 +7°C° 0 mm 4 mps 773 mmHg 83%
    22:00 +7°C° 0 mm 5 mps 772 mmHg 84%
    23:00 +7°C° 0.2 mm 5 mps 772 mmHg 84%

    23 October, Tuesday

    Time Temperature Precipitation Wind Pressure Humidity
    00:00 +8°C° 0.2 mm 5 mps 771 mmHg 85%
    01:00 +8°C° 0.2 mm 5 mps 770 mmHg 85%
    02:00 +8°C° 0.3 mm 6 mps 770 mmHg 86%
    03:00 +8°C° 0.3 mm 6 mps 769 mmHg 87%
    04:00 +8°C° 0.3 mm 6 mps 768 mmHg 88%
    05:00 +9°C° 0.6 mm 6 mps 768 mmHg 88%
    06:00 +9°C° 0.6 mm 7 mps 767 mmHg 87%
    07:00 +9°C° 0.6 mm 7 mps 766 mmHg 87%
    08:00 +10°C° 0.5 mm 7 mps 766 mmHg 84%
    09:00 +10°C° 0.5 mm 8 mps 766 mmHg 81%
    10:00 +10°C° 0.5 mm 8 mps 766 mmHg 78%
    11:00 +11°C° 0.5 mm 8 mps 765 mmHg 77%
    12:00 +11°C° 0.5 mm 8 mps 765 mmHg 76%
    13:00 +11°C° 0.5 mm 9 mps 765 mmHg 75%
    14:00 +10°C° 0.2 mm 8 mps 765 mmHg 73%
    15:00 +10°C° 0.2 mm 8 mps 765 mmHg 71%
    16:00 +9°C° 0.2 mm 8 mps 765 mmHg 68%
    17:00 +9°C° 0 mm 8 mps 765 mmHg 69%
    18:00 +8°C° 0 mm 7 mps 766 mmHg 70%
    19:00 +7°C° 0 mm 6 mps 766 mmHg 70%
    20:00 +7°C° 0 mm 6 mps 767 mmHg 71%
    21:00 +6°C° 0 mm 5 mps 767 mmHg 71%
    22:00 +6°C° 0 mm 4 mps 768 mmHg 72%
    23:00 +5°C° 0 mm 4 mps 768 mmHg 72%
    Show more